User: anonymous   Login
Location: Unspecified
(0.0000°N, 0.0000°E)
Time: 19:55:25
(UTC+00:00)
Language:

ISS - Orbit

View from above orbital plane
View from above orbital plane
View from above satellite
View from above satellite

Ground track
Ground track

The orbit data is extracted from the following two-line orbital elements,

1 25544U 98067A   17347.75736400  .00016717  00000-0  10270-3 0  9034
2 25544  51.6367 223.1400 0003099 232.6274 127.4596 15.54141234  9675
Epoch (UTC): 13 December 2017 18:10:36
Eccentricity: 0.0003099
inclination: 51.6367°
perigee height: 402 km
apogee height: 407 km
right ascension of ascending node: 223.1400°
argument of perigee: 232.6274°
revolutions per day: 15.54141234
mean anomaly at epoch: 127.4596°
orbit number at epoch: 967

The dashed part of the orbit path shows where the satellite is in the earth's shadow,  

DLR